Canyon City, OR

6:19 PM PST on December 03, 2016 (GMT -0800)
Grant County Regional

Weather History for KGCD - August, 2013

Change the Weather History Date:

Thursday, August 8, 2013

  Actual Average (KBNO) Record (KBNO)
Temperature  
Mean Temperature 74 °F 67 °F  
Max Temperature 88 °F 87 °F 100 °F (1990)
Min Temperature 60 °F 47 °F 34 °F (1985)
Degree Days  
Heating Degree Days 0 2  
Month to date heating degree days 9  
Since 1 June heating degree days 285  
Since 1 July heating degree days 67  
Cooling Degree Days 8 3  
Month to date cooling degree days 30  
Year to date cooling degree days 162  
Since 1 June cooling degree days 159  
Growing Degree Days 24 (Base 50)    
Moisture  
Dew Point 38 °F    
Average Humidity 29    
Maximum Humidity 76    
Minimum Humidity 15    
Precipitation  
Precipitation 0.02 in 0.01 in 0.58 in (1989)
Month to date precipitation 0.09  
Year to date precipitation 6.71  
Sea Level Pressure  
Sea Level Pressure 30.01 in    
Wind  
Wind Speed 8 mph (WNW)    
Max Wind Speed 21 mph    
Max Gust Speed 32 mph    
Visibility 10 miles    
Events Rain , Thunderstorm    
T = Trace of Precipitation, MM = Missing Value Source: NWS Daily Summary

Daily Weather History Graph

Daily Weather History Graph

Search for Another Location

Airport or City:

Trip Planner

Search our weather history database for the weather conditions in past years. The results will help you decide how hot, cold, wet, or windy it might be!

Date:

Astronomy

Aug. 08, 2013 Rise Set
Actual Time 5:51 AM PDT 8:10 PM PDT
Civil Twilight 5:18 AM PDT 8:43 PM PDT
Nautical Twilight 4:38 AM PDT 9:23 PM PDT
Astronomical Twilight 3:53 AM PDT 10:07 PM PDT
Moon 7:49 AM PDT (8/8) 8:43 PM PDT (8/8)
Length of Visible Light 15h 24m
Length of Day
14h 19m
Waxing Crescent, 3% of the Moon is Illuminated
Aug 8
Waxing Crescent
Aug 14
First Quarter
Aug 20
Full
Aug 28
Last Quarter
Sep 5
New

Hourly Weather History & Observations

Time (PDT) Temp. Dew Point Humidity Pressure Visibility Wind Dir Wind Speed Gust Speed Precip Events Conditions
12:15 AM 73.4 °F 35.4 °F 25% 30.06 in 10.0 mi West 13.8 mph - N/A   Clear
12:35 AM 72.3 °F 34.7 °F 25% 30.06 in 10.0 mi West 10.4 mph - N/A   Clear
12:55 AM 71.8 °F 34.7 °F 26% 30.07 in 10.0 mi West 12.7 mph 19.6 mph N/A   Clear
1:15 AM 71.4 °F 36.1 °F 28% 30.07 in 10.0 mi West 10.4 mph 18.4 mph N/A   Clear
1:35 AM 69.8 °F 36.5 °F 29% 30.07 in 10.0 mi WSW 6.9 mph - N/A   Clear
1:55 AM 68.2 °F 36.7 °F 31% 30.06 in 10.0 mi West 4.6 mph - N/A   Clear
2:15 AM 66.9 °F 36.7 °F 33% 30.06 in 10.0 mi SW 3.5 mph - N/A   Clear
2:35 AM 68.5 °F 37.6 °F 32% 30.05 in 10.0 mi Calm Calm - N/A   Clear
2:55 AM 68.4 °F 37.2 °F 32% 30.05 in 10.0 mi East 3.5 mph - N/A   Clear
3:15 AM 68.2 °F 37.4 °F 32% 30.05 in 10.0 mi East 3.5 mph - N/A   Clear
3:35 AM 67.3 °F 35.4 °F 31% 30.05 in 10.0 mi ENE 5.8 mph - N/A   Clear
3:55 AM 66.7 °F 35.8 °F 32% 30.04 in 7.0 mi East 5.8 mph - N/A   Clear
4:15 AM 65.5 °F 36.0 °F 34% 30.04 in 10.0 mi ENE 5.8 mph - N/A   Clear
4:35 AM 65.3 °F 35.6 °F 33% 30.03 in 10.0 mi ENE 8.1 mph - N/A   Clear
4:55 AM 65.1 °F 35.8 °F 34% 30.03 in 10.0 mi ENE 6.9 mph - N/A   Clear
5:15 AM 64.0 °F 36.0 °F 35% 30.03 in 10.0 mi East 5.8 mph - N/A   Clear
5:35 AM 63.3 °F 35.8 °F 36% 30.04 in 10.0 mi Calm Calm - N/A   Clear
5:55 AM 61.9 °F 35.6 °F 38% 30.04 in 10.0 mi Calm Calm - N/A   Clear
6:15 AM 60.3 °F 35.8 °F 40% 30.04 in 10.0 mi ESE 4.6 mph - N/A   Clear
6:35 AM 61.7 °F 36.5 °F 39% 30.04 in 10.0 mi ESE 3.5 mph - N/A   Clear
6:55 AM 62.1 °F 36.1 °F 38% 30.05 in 10.0 mi East 3.5 mph - N/A   Clear
7:15 AM 60.8 °F 36.3 °F 40% 30.05 in 10.0 mi Calm Calm - N/A   Clear
7:35 AM 64.2 °F 36.5 °F 36% 30.05 in 10.0 mi Calm Calm - N/A   Clear
7:55 AM 64.6 °F 37.0 °F 36% 30.05 in 10.0 mi East 3.5 mph - N/A   Clear
8:15 AM 67.1 °F 36.9 °F 33% 30.05 in 10.0 mi Calm Calm - N/A   Clear
8:35 AM 68.2 °F 38.5 °F 34% 30.05 in 10.0 mi West 4.6 mph - N/A   Clear
8:55 AM 68.9 °F 39.9 °F 35% 30.05 in 10.0 mi WSW 3.5 mph - N/A   Clear
9:15 AM 69.6 °F 40.6 °F 35% 30.05 in 10.0 mi West 5.8 mph - N/A   Clear
9:35 AM 70.7 °F 41.0 °F 34% 30.05 in 10.0 mi West 6.9 mph - N/A   Clear
9:55 AM 72.1 °F 40.8 °F 32% 30.04 in 10.0 mi West 4.6 mph - N/A   Clear
10:15 AM 74.1 °F 39.7 °F 29% 30.04 in 10.0 mi WNW 4.6 mph - N/A   Clear
10:35 AM 74.8 °F 38.7 °F 27% 30.04 in 10.0 mi SW 5.8 mph - N/A   Clear
10:55 AM 76.5 °F 39.2 °F 26% 30.03 in 10.0 mi West 6.9 mph - N/A   Clear
11:15 AM 78.1 °F 39.0 °F 25% 30.03 in 10.0 mi NW 6.9 mph - N/A   Clear
11:35 AM 79.7 °F 38.8 °F 23% 30.03 in 10.0 mi NW 3.5 mph - N/A   Clear
11:55 AM 77.4 °F 38.8 °F 25% 30.03 in 10.0 mi WSW 3.5 mph - N/A   Clear
12:15 PM 78.8 °F 39.4 °F 24% 30.02 in 10.0 mi West 3.5 mph - N/A   Clear
12:35 PM 81.1 °F 38.5 °F 22% 30.01 in 10.0 mi WNW 8.1 mph - N/A   Clear
12:55 PM 81.5 °F 37.8 °F 21% 30.01 in 10.0 mi WSW 8.1 mph - N/A   Clear
1:15 PM 83.1 °F 36.7 °F 19% 30.00 in 10.0 mi West 10.4 mph - N/A   Clear
1:35 PM 84.6 °F 36.3 °F 18% 29.99 in 10.0 mi WNW 11.5 mph 16.1 mph N/A   Clear
1:55 PM 85.1 °F 35.1 °F 17% 29.99 in 10.0 mi West 11.5 mph 17.3 mph N/A   Clear
2:15 PM 84.6 °F 34.3 °F 17% 29.99 in 10.0 mi West 10.4 mph 16.1 mph N/A   Clear
2:35 PM 87.3 °F 34.3 °F 15% 29.99 in 10.0 mi WSW 13.8 mph - N/A   Clear
2:55 PM 86.4 °F 33.6 °F 15% 29.98 in 10.0 mi West 8.1 mph 18.4 mph N/A   Scattered Clouds
3:15 PM 86.9 °F 33.4 °F 15% 29.97 in 10.0 mi West 12.7 mph 17.3 mph N/A   Clear
3:35 PM 86.5 °F 33.3 °F 15% 29.96 in 10.0 mi West 12.7 mph 18.4 mph N/A   Clear
3:55 PM 87.1 °F 33.4 °F 15% 29.95 in 10.0 mi WNW 17.3 mph 23.0 mph N/A   Clear
4:15 PM 87.6 °F 33.6 °F 15% 29.96 in 10.0 mi West 16.1 mph 20.7 mph N/A   Clear
4:35 PM 86.9 °F 33.6 °F 15% 29.96 in 10.0 mi West 16.1 mph - N/A   Clear
4:55 PM 86.0 °F 32.9 °F 15% 29.96 in 10.0 mi WNW 15.0 mph 24.2 mph N/A   Scattered Clouds
5:15 PM 86.2 °F 34.0 °F 15% 29.95 in 10.0 mi West 15.0 mph - N/A   Clear
5:35 PM 84.2 °F 34.3 °F 17% 29.95 in 10.0 mi West 18.4 mph 23.0 mph N/A   Scattered Clouds
5:55 PM 83.8 °F 36.7 °F 19% 29.94 in 10.0 mi WNW 12.7 mph 21.9 mph N/A   Scattered Clouds
6:15 PM 86.4 °F 37.0 °F 17% 29.94 in 10.0 mi NW 12.7 mph 20.7 mph N/A   Scattered Clouds
6:35 PM 85.5 °F 38.8 °F 19% 29.94 in 10.0 mi NW 15.0 mph 21.9 mph N/A   Scattered Clouds
6:55 PM 83.1 °F 39.6 °F 21% 29.94 in 7.0 mi North 15.0 mph 20.7 mph N/A   Scattered Clouds
7:15 PM 81.3 °F 39.9 °F 23% 29.94 in 7.0 mi North 9.2 mph 17.3 mph N/A   Clear
7:35 PM 81.0 °F 39.9 °F 23% 29.94 in 10.0 mi North 16.1 mph 21.9 mph N/A   Clear
7:55 PM 80.2 °F 40.1 °F 24% 29.94 in 7.0 mi North 10.4 mph 19.6 mph N/A   Clear
8:15 PM 79.3 °F 41.2 °F 26% 29.94 in 10.0 mi North 15.0 mph 19.6 mph N/A   Clear
8:35 PM 78.8 °F 41.0 °F 26% 29.94 in 10.0 mi North 13.8 mph 20.7 mph N/A   Clear
8:55 PM 78.3 °F 40.8 °F 26% 29.94 in 10.0 mi North 10.4 mph 18.4 mph N/A   Clear
9:15 PM 77.9 °F 41.2 °F 27% 29.95 in 10.0 mi NNE 8.1 mph - N/A   Clear
9:35 PM 77.9 °F 41.0 °F 27% 29.97 in 7.0 mi Calm Calm - N/A Thunderstorm Thunderstorm
9:55 PM 75.6 °F 41.0 °F 29% 30.00 in 7.0 mi WSW 4.6 mph - N/A   Scattered Clouds
10:15 PM 76.3 °F 41.4 °F 29% 30.03 in 10.0 mi SSW 11.5 mph 16.1 mph N/A   Mostly Cloudy
10:35 PM 69.3 °F 49.3 °F 49% 30.07 in 10.0 mi South 16.1 mph 31.1 mph N/A Rain , Thunderstorm Light Thunderstorms and Rain
10:55 PM 64.8 °F 53.1 °F 66% 30.07 in 10.0 mi South 20.7 mph 24.2 mph N/A Rain Light Rain
11:15 PM 62.8 °F 54.0 °F 73% 30.07 in 10.0 mi SSW 15.0 mph 32.2 mph 0.01 in Rain Light Rain
11:35 PM 63.1 °F 53.1 °F 70% 30.06 in 10.0 mi WSW 6.9 mph - 0.02 in Rain Light Rain
11:55 PM 61.9 °F 54.1 °F 76% 30.05 in 10.0 mi Calm Calm - 0.02 in   Clear